Regional Weather Roundup
Issued by NWS Sioux Falls, SD

Home | Current Version | Previous Version | Graphics & Text | Print | Product List | Glossary On
Versions: 1 2 3 4 5 6 7 8 9 10 11 12 13 14 15 16 17 18 19 20 21 22 23 24 25 26 27 28 29 30 31 32 33 34 35 36 37 38 39 40 41 42 43 44 45 46 47 48 49 50
431
ASUS43 KFSD 242302
RWRFSD

WEATHER ROUNDUP FOR SE SOUTH DAKOTA/SW MINNESOTA/NW IOWA
NATIONAL WEATHER SERVICE SIOUX FALLS SD
600 PM CDT WED MAY 24 2017

NOTE: "FAIR" INDICATES FEW OR NO CLOUDS BELOW 12,000 FEET WITH NO
SIGNIFICANT WEATHER AND OR OBSTRUCTIONS TO VISIBILITY.


SDZ038>040-050-052>070-250000-
SOUTHEAST SOUTH DAKOTA

CITY           SKY/WX    TMP DP  RH WIND       PRES   REMARKS
BROOKINGS      CLOUDY    59  46  62 SE12      29.67F
CHAMBERLAIN    NOT AVBL
HURON          MOSUNNY   65  45  48 S18G26    29.62F
MADISON        MOCLDY    59  46  63 S8G16     29.67S
MITCHELL       MOSUNNY   67  45  45 S15G22    29.64F
SIOUX FALLS    PTSUNNY   64  47  53 E7        29.66F
WINNER         FAIR      70  44  39 SE18G24   29.56F
YANKTON        MOSUNNY   64  44  48 SE6       29.66F
$$

MNZ071-072-080-081-089-090-097-098-250000-
SOUTHWEST MINNESOTA

CITY           SKY/WX    TMP DP  RH WIND       PRES   REMARKS
FAIRMONT       MOSUNNY   61  46  57 N7        29.69F
JACKSON        CLOUDY    57  45  62 CALM      29.70F
LUVERNE        MOSUNNY   61  39  44 NE5       29.68F
MARSHALL       CLOUDY    59  43  55 SE6       29.70S
MONTEVIDEO     CLOUDY    61  45  55 S9        29.69S
PIPESTONE      MOSUNNY   61  39  44 SE8       29.68F
REDWOOD FALLS  CLOUDY    60  43  53 E6        29.69S
TRACY          CLOUDY    60  46  60 E5        29.70S
WINDOM         MOSUNNY   57  43  58 CALM      29.70S
WORTHINGTON    CLOUDY    57  44  62 E3        29.70F
$$

IAZ001>003-012>014-020>022-031-032-NEZ013-014-SDZ071-250000-
NORTHWEST IOWA

CITY           SKY/WX    TMP DP  RH WIND       PRES   REMARKS
CHEROKEE       PTSUNNY   64  44  48 CALM      29.68F
DENISON        PTSUNNY   63  45  51 NE7       29.69F
ESTHERVILLE    SUNNY     59  46  62 CALM      29.69F
LE MARS        PTSUNNY   64  45  48 VRB6      29.68F
ORANGE CITY    MOSUNNY   63  45  51 CALM      29.69S
SHELDON        CLOUDY    61  43  51 CALM      29.67F
SIOUX CITY     SUNNY     66  44  45 E3        29.67F
SPENCER        PTSUNNY   60  43  53 E3        29.69F
STORM LAKE       N/A     61  41  48 NE5       29.69S
$$

ABBREVIATIONS USED IN REMARKS
   TC - TEMPERATURE IN CELSIUS
  WCI - WIND CHILL INDEX
   HX - HEAT INDEX
  VSB - VISIBILITY





USA.gov is the U.S. government's official web portal to all federal, state and local government web resources and services.